Shreveport Downtown, LA

3:24 PM CDT on April 26, 2017 (GMT -0500)
Shreveport Downtown

Weather History for KDTN - January, 2013

Change the Weather History Date:

Monday, January 21, 2013

  Actual Average (KBAD) Record (KBAD)
Temperature  
Mean Temperature 46 °F -  
Max Temperature 54 °F 54 °F 78 °F (2003)
Min Temperature 37 °F 35 °F 24 °F (2011)
Degree Days  
Heating Degree Days 20    
Moisture  
Dew Point 37 °F    
Average Humidity 78    
Maximum Humidity 100    
Minimum Humidity 49    
Precipitation  
Precipitation 0.00 in - - ()
Sea Level Pressure  
Sea Level Pressure 30.22 in    
Wind  
Wind Speed 2 mph (NE)    
Max Wind Speed 10 mph    
Max Gust Speed -    
Visibility 7 miles    
Events Fog    
Averages and records for this station are not official NWS values.
T = Trace of Precipitation, MM = Missing Value Source: NWS Daily Summary

Daily Weather History Graph

Daily Weather History Graph

Search for Another Location

Airport or City:

Trip Planner

Search our weather history database for the weather conditions in past years. The results will help you decide how hot, cold, wet, or windy it might be!

Date:

Astronomy

Jan. 21, 2013 Rise Set
Actual Time 7:15 AM CST 5:38 PM CST
Civil Twilight 6:48 AM CST 6:04 PM CST
Nautical Twilight 6:18 AM CST 6:34 PM CST
Astronomical Twilight 5:49 AM CST 7:03 PM CST
Moon 1:19 PM CST (1/21) 2:43 AM CST (1/21)
Length of Visible Light 11h 15m
Length of Day
10h 22m
Waxing Gibbous, 75% of the Moon is Illuminated
Jan 21
Waxing Gibbous
Jan 26
Full
Feb 3
Last Quarter
Feb 10
New
Feb 17
First Quarter

Hourly Weather History & Observations

Time (CST) Temp. Windchill Dew Point Humidity Pressure Visibility Wind Dir Wind Speed Gust Speed Precip Events Conditions
12:53 AM 42.1 °F - 39.9 °F 92% 30.15 in 10.0 mi Calm Calm - N/A   Clear
1:53 AM 42.1 °F - 39.9 °F 92% 30.16 in 7.0 mi Calm Calm - N/A   Clear
3:53 AM 39.0 °F - 37.0 °F 93% 30.16 in 2.5 mi Calm Calm - N/A   Clear
3:57 AM 37.4 °F - 37.4 °F 100% 30.16 in 0.8 mi Calm Calm - N/A   Clear
4:24 AM 39.2 °F - 39.2 °F 100% 30.16 in 1.8 mi Calm Calm - N/A   Partly Cloudy
4:27 AM 39.2 °F - 39.2 °F 100% 30.16 in 3.0 mi Calm Calm - N/A   Scattered Clouds
4:53 AM 42.1 °F - 39.9 °F 92% 30.17 in 10.0 mi Calm Calm - N/A   Overcast
5:53 AM 39.0 °F - 39.0 °F 100% 30.18 in 4.0 mi Calm Calm - N/A   Clear
6:07 AM 39.2 °F - 39.2 °F 100% 30.18 in 1.8 mi Calm Calm - N/A   Clear
6:23 AM 39.2 °F - 37.4 °F 93% 30.18 in 0.5 mi Calm Calm - N/A Fog Fog
6:29 AM 39.2 °F - 39.2 °F 100% 30.19 in 2.0 mi Calm Calm - N/A   Clear
6:53 AM 39.0 °F - 37.9 °F 96% 30.19 in 6.0 mi Calm Calm - N/A   Clear
7:40 AM 37.4 °F - 37.4 °F 100% 30.21 in 2.0 mi Calm Calm - N/A   Mostly Cloudy
7:53 AM 41.0 °F - 39.9 °F 96% 30.21 in 6.0 mi Calm Calm - N/A   Mostly Cloudy
8:53 AM 46.9 °F - 44.1 °F 90% 30.22 in 9.0 mi Variable 3.5 mph - N/A   Mostly Cloudy
9:53 AM 50.0 °F - 44.1 °F 80% 30.25 in 9.0 mi NE 4.6 mph - N/A   Scattered Clouds
10:53 AM 51.1 °F - 43.0 °F 74% 30.26 in 10.0 mi NNE 9.2 mph - N/A   Mostly Cloudy
11:53 AM 53.1 °F - 41.0 °F 64% 30.27 in 10.0 mi North 10.4 mph - N/A   Overcast
12:53 PM 54.0 °F - 39.0 °F 57% 30.26 in 10.0 mi NE 9.2 mph - N/A   Scattered Clouds
1:53 PM 54.0 °F - 37.9 °F 55% 30.25 in 10.0 mi NNE 9.2 mph - N/A   Partly Cloudy
2:53 PM 54.0 °F - 37.0 °F 53% 30.25 in 10.0 mi Variable 5.8 mph - N/A   Scattered Clouds
3:53 PM 54.0 °F - 35.1 °F 49% 30.25 in 10.0 mi NE 8.1 mph - N/A   Scattered Clouds
4:53 PM 51.1 °F - 34.0 °F 52% 30.24 in 10.0 mi NE 5.8 mph - N/A   Clear
5:53 PM 48.9 °F - 34.0 °F 56% 30.24 in 10.0 mi ENE 4.6 mph - N/A   Clear
6:53 PM 46.9 °F - 33.1 °F 59% 30.24 in 10.0 mi ENE 5.8 mph - N/A   Scattered Clouds
7:53 PM 46.0 °F - 32.0 °F 58% 30.25 in 10.0 mi Calm Calm - N/A   Clear
8:53 PM 45.0 °F 43.5 °F 30.9 °F 58% 30.26 in 10.0 mi NE 3.5 mph - N/A   Partly Cloudy
9:53 PM 44.1 °F 41.5 °F 32.0 °F 63% 30.28 in 10.0 mi NE 4.6 mph - N/A   Overcast
10:53 PM 42.1 °F 40.2 °F 30.0 °F 62% 30.29 in 10.0 mi East 3.5 mph - N/A   Clear
11:53 PM 41.0 °F 39.0 °F 30.0 °F 65% 30.28 in 10.0 mi East 3.5 mph - N/A   Clear